Time,TemperatureF,DewpointF,PressureIn,WindDirection,WindDirectionDegrees,WindSpeedMPH,WindSpeedGustMPH,Humidity,HourlyPrecipIn,Conditions,Clouds,dailyrainin,SoftwareType,DateUTC
2013-02-27 00:00:00,27.2,20.3,29.91,ESE,106,0.0,0.0,75,0.00,,SKC,0.00,VWS V14.01,2013-02-27 06:00:00,
2013-02-27 00:05:00,27.0,20.1,29.91,NE,42,7.0,7.0,75,0.00,,SKC,0.00,VWS V14.01,2013-02-27 06:05:00,
2013-02-27 00:10:00,27.2,20.3,29.91,ENE,78,2.0,10.0,75,0.00,,SKC,0.00,VWS V14.01,2013-02-27 06:10:00,
2013-02-27 00:15:00,27.2,20.3,29.91,SE,134,1.0,8.0,75,0.00,,SKC,0.00,VWS V14.01,2013-02-27 06:15:00,
2013-02-27 00:20:00,27.2,20.3,29.91,ENE,66,1.0,1.0,75,0.00,,SKC,0.00,VWS V14.01,2013-02-27 06:20:00,
2013-02-27 00:25:00,27.0,20.1,29.91,NE,37,6.0,8.0,75,0.00,,SKC,0.00,VWS V14.01,2013-02-27 06:25:00,
2013-02-27 00:30:00,26.7,19.9,29.91,NNE,31,5.0,8.0,75,0.00,,SKC,0.00,VWS V14.01,2013-02-27 06:30:00,
2013-02-27 00:35:00,27.0,19.8,29.91,North,1,5.0,11.0,74,0.00,,SKC,0.00,VWS V14.01,2013-02-27 06:35:00,
2013-02-27 00:40:00,26.9,20.0,29.91,NE,56,8.0,11.0,75,0.00,,SKC,0.00,VWS V14.01,2013-02-27 06:40:00,
2013-02-27 00:45:00,26.9,20.0,29.90,East,93,1.0,8.0,75,0.00,,SKC,0.00,VWS V14.01,2013-02-27 06:45:00,
2013-02-27 00:50:00,26.9,20.0,29.90,NE,45,3.0,8.0,75,0.00,,SKC,0.00,VWS V14.01,2013-02-27 06:50:00,
2013-02-27 00:55:00,26.7,19.9,29.90,East,93,5.0,8.0,75,0.00,,SKC,0.00,VWS V14.01,2013-02-27 06:55:00,
2013-02-27 01:00:00,26.6,19.8,29.91,NE,44,3.0,9.0,75,0.00,,SKC,0.00,VWS V14.01,2013-02-27 07:00:00,
2013-02-27 01:05:00,26.4,19.6,29.91,NE,35,8.0,11.0,75,0.00,,SKC,0.00,VWS V14.01,2013-02-27 07:05:00,
2013-02-27 01:10:00,26.3,19.5,29.91,SE,124,2.0,2.0,75,0.00,,SKC,0.00,VWS V14.01,2013-02-27 07:10:00,
2013-02-27 01:15:00,26.3,19.5,29.91,North,0,3.0,5.0,75,0.00,,SKC,0.00,VWS V14.01,2013-02-27 07:15:00,
2013-02-27 01:20:00,26.3,19.5,29.91,SSE,155,0.0,6.0,75,0.00,,SKC,0.00,VWS V14.01,2013-02-27 07:20:00,
2013-02-27 01:25:00,26.3,19.5,29.91,East,96,0.0,5.0,75,0.00,,SKC,0.00,VWS V14.01,2013-02-27 07:25:00,
2013-02-27 01:30:00,26.0,19.2,29.91,NE,51,3.0,6.0,75,0.00,,SKC,0.00,VWS V14.01,2013-02-27 07:30:00,
2013-02-27 01:35:00,25.8,19.3,29.91,East,85,6.0,7.0,76,0.00,,SKC,0.00,VWS V14.01,2013-02-27 07:35:00,
2013-02-27 01:40:00,26.1,19.3,29.91,East,80,7.0,8.0,75,0.00,,SKC,0.00,VWS V14.01,2013-02-27 07:40:00,
2013-02-27 01:45:00,26.1,19.3,29.91,NE,52,3.0,8.0,75,0.00,,SKC,0.00,VWS V14.01,2013-02-27 07:45:00,
2013-02-27 01:50:00,26.0,19.2,29.91,NE,34,5.0,8.0,75,0.00,,SKC,0.00,VWS V14.01,2013-02-27 07:50:00,
2013-02-27 01:55:00,25.8,19.3,29.91,NNE,32,6.0,10.0,76,0.00,,SKC,0.00,VWS V14.01,2013-02-27 07:55:00,
2013-02-27 02:00:00,26.0,19.2,29.91,North,3,3.0,10.0,75,0.00,,SKC,0.00,VWS V14.01,2013-02-27 08:00:00,
2013-02-27 02:05:00,26.3,19.5,29.91,NE,52,3.0,11.0,75,0.00,,SKC,0.00,VWS V14.01,2013-02-27 08:05:00,
2013-02-27 02:09:00,26.1,19.3,29.91,NNE,24,6.0,11.0,75,0.00,,SKC,0.00,VWS V14.01,2013-02-27 08:09:00,
2013-02-27 02:15:00,26.1,19.3,29.91,ENE,61,6.0,10.0,75,0.00,,SKC,0.00,VWS V14.01,2013-02-27 08:15:00,
2013-02-27 02:19:00,26.0,19.5,29.91,NE,34,3.0,11.0,76,0.00,,SKC,0.00,VWS V14.01,2013-02-27 08:19:00,
2013-02-27 02:24:00,26.0,19.5,29.91,NNE,32,5.0,12.0,76,0.00,,SKC,0.00,VWS V14.01,2013-02-27 08:24:00,
2013-02-27 02:29:00,26.0,19.5,29.90,NE,34,2.0,12.0,76,0.00,,SKC,0.00,VWS V14.01,2013-02-27 08:29:00,
2013-02-27 02:35:00,25.8,19.3,29.90,NNE,27,7.0,11.0,76,0.00,,SKC,0.00,VWS V14.01,2013-02-27 08:35:00,
2013-02-27 02:40:00,25.7,19.2,29.90,North,11,7.0,11.0,76,0.00,,SKC,0.00,VWS V14.01,2013-02-27 08:40:00,
2013-02-27 02:45:00,25.4,19.5,29.90,NNE,28,6.0,10.0,78,0.00,,SKC,0.00,VWS V14.01,2013-02-27 08:45:00,
2013-02-27 02:49:00,25.4,19.5,29.90,ENE,58,6.0,10.0,78,0.00,,SKC,0.00,VWS V14.01,2013-02-27 08:49:00,
2013-02-27 02:54:00,25.4,19.5,29.90,NNE,21,8.0,11.0,78,0.00,,SKC,0.00,VWS V14.01,2013-02-27 08:54:00,
2013-02-27 02:59:00,25.4,19.2,29.90,NNE,25,3.0,13.0,77,0.00,,SKC,0.00,VWS V14.01,2013-02-27 08:59:00,
2013-02-27 03:04:00,25.3,19.4,29.90,North,0,4.0,11.0,78,0.00,,SKC,0.00,VWS V14.01,2013-02-27 09:04:00,
2013-02-27 03:09:00,25.3,19.4,29.90,NNE,20,6.0,11.0,78,0.00,,SKC,0.00,VWS V14.01,2013-02-27 09:09:00,
2013-02-27 03:14:00,25.3,19.4,29.90,NNE,28,7.0,12.0,78,0.00,,SKC,0.00,VWS V14.01,2013-02-27 09:14:00,
2013-02-27 03:19:00,25.1,19.2,29.90,NE,45,3.0,12.0,78,0.00,,SKC,0.00,VWS V14.01,2013-02-27 09:19:00,
2013-02-27 03:24:00,25.0,19.1,29.90,NNE,23,3.0,11.0,78,0.00,,SKC,0.00,VWS V14.01,2013-02-27 09:24:00,
2013-02-27 03:29:00,25.0,19.1,29.90,NE,40,1.0,11.0,78,0.00,,SKC,0.00,VWS V14.01,2013-02-27 09:29:00,
2013-02-27 03:34:00,25.0,19.1,29.90,NNE,14,2.0,12.0,78,0.00,,SKC,0.00,VWS V14.01,2013-02-27 09:34:00,
2013-02-27 03:39:00,24.7,18.8,29.90,NNE,25,5.0,12.0,78,0.00,,SKC,0.00,VWS V14.01,2013-02-27 09:39:00,
2013-02-27 03:44:00,24.8,18.9,29.90,NE,44,5.0,11.0,78,0.00,,SKC,0.00,VWS V14.01,2013-02-27 09:44:00,
2013-02-27 03:49:00,25.0,19.1,29.90,NE,47,6.0,11.0,78,0.00,,SKC,0.00,VWS V14.01,2013-02-27 09:49:00,
2013-02-27 03:54:00,24.8,18.9,29.90,NE,34,6.0,10.0,78,0.00,,SKC,0.00,VWS V14.01,2013-02-27 09:54:00,
2013-02-27 03:59:00,24.7,18.8,29.90,NNE,24,5.0,10.0,78,0.00,,SKC,0.00,VWS V14.01,2013-02-27 09:59:00,
2013-02-27 04:04:00,24.5,18.6,29.90,NNE,27,2.0,8.0,78,0.00,,SKC,0.00,VWS V14.01,2013-02-27 10:04:00,
2013-02-27 04:09:00,24.5,18.9,29.90,NNE,17,4.0,10.0,79,0.00,,SKC,0.00,VWS V14.01,2013-02-27 10:09:00,
2013-02-27 04:14:00,24.8,18.9,29.90,NNE,23,6.0,11.0,78,0.00,,SKC,0.00,VWS V14.01,2013-02-27 10:14:00,
2013-02-27 04:19:00,24.7,18.8,29.90,NNE,13,5.0,11.0,78,0.00,,SKC,0.00,VWS V14.01,2013-02-27 10:19:00,
2013-02-27 04:24:00,24.7,18.8,29.90,NNE,25,8.0,11.0,78,0.00,,SKC,0.00,VWS V14.01,2013-02-27 10:24:00,
2013-02-27 04:29:00,24.8,18.9,29.90,NE,38,9.0,12.0,78,0.00,,SKC,0.00,VWS V14.01,2013-02-27 10:29:00,
2013-02-27 04:34:00,25.0,19.1,29.90,NNE,13,7.0,11.0,78,0.00,,SKC,0.00,VWS V14.01,2013-02-27 10:34:00,
2013-02-27 04:39:00,25.0,18.8,29.90,NNE,27,2.0,11.0,77,0.00,,SKC,0.00,VWS V14.01,2013-02-27 10:39:00,
2013-02-27 04:44:00,25.1,18.9,29.90,NNE,32,8.0,12.0,77,0.00,,SKC,0.00,VWS V14.01,2013-02-27 10:44:00,
2013-02-27 04:49:00,25.3,19.1,29.90,NNE,28,6.0,14.0,77,0.00,,SKC,0.00,VWS V14.01,2013-02-27 10:49:00,
2013-02-27 04:54:00,25.1,18.9,29.90,NNE,32,6.0,11.0,77,0.00,,SKC,0.00,VWS V14.01,2013-02-27 10:54:00,
2013-02-27 04:59:00,25.1,18.9,29.90,East,82,3.0,13.0,77,0.00,,SKC,0.00,VWS V14.01,2013-02-27 10:59:00,
2013-02-27 05:04:00,25.1,18.9,29.90,North,0,3.0,7.0,77,0.00,,SKC,0.00,VWS V14.01,2013-02-27 11:04:00,
2013-02-27 05:09:00,25.3,19.1,29.90,North,10,1.0,8.0,77,0.00,,SKC,0.00,VWS V14.01,2013-02-27 11:09:00,
2013-02-27 05:14:00,25.3,19.1,29.91,ESE,113,1.0,7.0,77,0.00,,SKC,0.00,VWS V14.01,2013-02-27 11:14:00,
2013-02-27 05:19:00,25.3,19.1,29.91,NE,35,2.0,7.0,77,0.00,,SKC,0.00,VWS V14.01,2013-02-27 11:19:00,
2013-02-27 05:24:00,25.3,19.1,29.91,NNE,28,0.0,3.0,77,0.00,,SKC,0.00,VWS V14.01,2013-02-27 11:24:00,
2013-02-27 05:29:00,25.3,19.1,29.91,ESE,121,0.0,6.0,77,0.00,,SKC,0.00,VWS V14.01,2013-02-27 11:29:00,
2013-02-27 05:34:00,25.0,19.1,29.91,NE,40,5.0,8.0,78,0.00,,SKC,0.00,VWS V14.01,2013-02-27 11:34:00,
2013-02-27 05:39:00,24.7,18.8,29.91,NNE,20,6.0,10.0,78,0.00,,SKC,0.00,VWS V14.01,2013-02-27 11:39:00,
2013-02-27 05:44:00,24.4,18.5,29.91,North,6,5.0,10.0,78,0.00,,SKC,0.00,VWS V14.01,2013-02-27 11:44:00,
2013-02-27 05:49:00,24.4,18.5,29.91,NNE,27,10.0,13.0,78,0.00,,SKC,0.00,VWS V14.01,2013-02-27 11:49:00,
2013-02-27 05:54:00,24.4,18.5,29.91,NNE,13,8.0,12.0,78,0.00,,SKC,0.00,VWS V14.01,2013-02-27 11:54:00,
2013-02-27 05:59:00,24.2,18.3,29.91,NNE,20,5.0,12.0,78,0.00,,SKC,0.00,VWS V14.01,2013-02-27 11:59:00,
2013-02-27 06:04:00,24.1,18.2,29.91,North,356,7.0,10.0,78,0.00,,SKC,0.00,VWS V14.01,2013-02-27 12:04:00,
2013-02-27 06:09:00,23.8,18.2,29.91,ENE,62,5.0,11.0,79,0.00,,SKC,0.00,VWS V14.01,2013-02-27 12:09:00,
2013-02-27 06:14:00,23.6,18.1,29.92,North,0,7.0,11.0,79,0.00,,SKC,0.00,VWS V14.01,2013-02-27 12:14:00,
2013-02-27 06:19:00,23.5,18.0,29.92,NNE,21,3.0,11.0,79,0.00,,SKC,0.00,VWS V14.01,2013-02-27 12:19:00,
2013-02-27 06:24:00,23.5,18.0,29.92,NE,35,5.0,12.0,79,0.00,,SKC,0.00,VWS V14.01,2013-02-27 12:24:00,
2013-02-27 06:29:00,23.2,17.7,29.92,North,0,2.0,12.0,79,0.00,,SKC,0.00,VWS V14.01,2013-02-27 12:29:00,
2013-02-27 06:34:00,23.0,17.5,29.92,NNE,28,7.0,10.0,79,0.00,,SKC,0.00,VWS V14.01,2013-02-27 12:34:00,
2013-02-27 06:39:00,23.0,17.8,29.92,North,1,1.0,11.0,80,0.00,,SKC,0.00,VWS V14.01,2013-02-27 12:39:00,
2013-02-27 06:44:00,23.0,17.8,29.93,North,7,3.0,8.0,80,0.00,,SKC,0.00,VWS V14.01,2013-02-27 12:44:00,
2013-02-27 06:49:00,22.9,17.7,29.93,NNE,23,5.0,8.0,80,0.00,,SKC,0.00,VWS V14.01,2013-02-27 12:49:00,
2013-02-27 06:54:00,22.9,17.7,29.93,NNE,25,2.0,8.0,80,0.00,,SKC,0.00,VWS V14.01,2013-02-27 12:54:00,
2013-02-27 06:59:00,22.5,17.0,29.93,NNE,32,5.0,10.0,79,0.00,,SKC,0.00,VWS V14.01,2013-02-27 12:59:00,
2013-02-27 07:04:00,22.4,16.9,29.93,NNE,25,5.0,7.0,79,0.00,,SKC,0.00,VWS V14.01,2013-02-27 13:04:00,
2013-02-27 07:09:00,22.4,16.6,29.93,NNE,13,3.0,10.0,78,0.00,,SKC,0.00,VWS V14.01,2013-02-27 13:09:00,
2013-02-27 07:14:00,22.2,16.7,29.94,North,10,3.0,10.0,79,0.00,,SKC,0.00,VWS V14.01,2013-02-27 13:14:00,
2013-02-27 07:19:00,22.2,16.4,29.94,NNE,28,5.0,10.0,78,0.00,,SKC,0.00,VWS V14.01,2013-02-27 13:19:00,
2013-02-27 07:24:00,22.1,16.6,29.94,NE,34,3.0,7.0,79,0.00,,SKC,0.00,VWS V14.01,2013-02-27 13:24:00,
2013-02-27 07:29:00,21.9,16.4,29.94,NNE,24,6.0,7.0,79,0.00,,SKC,0.00,VWS V14.01,2013-02-27 13:29:00,
2013-02-27 07:34:00,22.1,16.9,29.94,NNE,30,3.0,8.0,80,0.00,,SKC,0.00,VWS V14.01,2013-02-27 13:34:00,
2013-02-27 07:39:00,22.5,17.0,29.94,NNE,27,5.0,9.0,79,0.00,,SKC,0.00,VWS V14.01,2013-02-27 13:39:00,
2013-02-27 07:44:00,22.7,16.9,29.94,NNE,24,7.0,10.0,78,0.00,,SKC,0.00,VWS V14.01,2013-02-27 13:44:00,
2013-02-27 07:49:00,22.9,16.8,29.94,North,0,4.0,10.0,77,0.00,,SKC,0.00,VWS V14.01,2013-02-27 13:49:00,
2013-02-27 07:54:00,23.0,16.9,29.94,North,7,6.0,10.0,77,0.00,,SKC,0.00,VWS V14.01,2013-02-27 13:54:00,
2013-02-27 07:59:00,23.2,17.1,29.94,NNE,18,6.0,10.0,77,0.00,,SKC,0.00,VWS V14.01,2013-02-27 13:59:00,
2013-02-27 08:04:00,23.5,17.4,29.94,NNE,25,3.0,10.0,77,0.00,,SKC,0.00,VWS V14.01,2013-02-27 14:04:00,
2013-02-27 08:09:00,23.6,17.2,29.94,North,11,6.0,11.0,76,0.00,,SKC,0.00,VWS V14.01,2013-02-27 14:09:00,
2013-02-27 08:14:00,23.8,17.4,29.95,NNE,30,9.0,10.0,76,0.00,,SKC,0.00,VWS V14.01,2013-02-27 14:14:00,
2013-02-27 08:19:00,24.2,17.4,29.95,NNE,32,3.0,13.0,75,0.00,,SKC,0.00,VWS V14.01,2013-02-27 14:19:00,
2013-02-27 08:24:00,24.4,17.6,29.95,NNE,31,3.0,10.0,75,0.00,,SKC,0.00,VWS V14.01,2013-02-27 14:24:00,
2013-02-27 08:29:00,24.7,17.6,29.95,NNE,31,9.0,13.0,74,0.00,,SKC,0.00,VWS V14.01,2013-02-27 14:29:00,
2013-02-27 08:34:00,24.8,17.7,29.95,NNE,27,10.0,14.0,74,0.00,,SKC,0.00,VWS V14.01,2013-02-27 14:34:00,
2013-02-27 08:39:00,25.1,18.0,29.95,North,359,7.0,14.0,74,0.00,,SKC,0.00,VWS V14.01,2013-02-27 14:39:00,
2013-02-27 08:44:00,25.6,18.2,29.94,NE,41,6.0,13.0,73,0.00,,SKC,0.00,VWS V14.01,2013-02-27 14:44:00,
2013-02-27 08:49:00,25.8,18.0,29.94,North,3,8.0,13.0,72,0.00,,SKC,0.00,VWS V14.01,2013-02-27 14:49:00,
2013-02-27 08:54:00,26.0,18.2,29.94,North,3,8.0,13.0,72,0.00,,SKC,0.00,VWS V14.01,2013-02-27 14:54:00,
2013-02-27 08:59:00,26.3,18.5,29.95,NE,37,10.0,13.0,72,0.00,,SKC,0.00,VWS V14.01,2013-02-27 14:59:00,
2013-02-27 09:04:00,26.6,18.8,29.95,NE,41,9.0,12.0,72,0.00,,SKC,0.00,VWS V14.01,2013-02-27 15:04:00,
2013-02-27 09:09:00,26.7,18.6,29.95,North,8,8.0,13.0,71,0.00,,SKC,0.00,VWS V14.01,2013-02-27 15:09:00,
2013-02-27 09:14:00,27.0,19.2,29.95,NNE,16,2.0,12.0,72,0.00,,SKC,0.00,VWS V14.01,2013-02-27 15:14:00,
2013-02-27 09:19:00,27.3,19.1,29.95,NNE,16,6.0,12.0,71,0.00,,SKC,0.00,VWS V14.01,2013-02-27 15:19:00,
2013-02-27 09:24:00,27.6,19.4,29.95,North,4,7.0,13.0,71,0.00,,SKC,0.00,VWS V14.01,2013-02-27 15:24:00,
2013-02-27 09:29:00,27.8,19.6,29.95,NNE,30,5.0,13.0,71,0.00,,SKC,0.00,VWS V14.01,2013-02-27 15:29:00,
2013-02-27 09:34:00,28.1,19.9,29.95,NNE,24,6.0,12.0,71,0.00,,SKC,0.00,VWS V14.01,2013-02-27 15:34:00,
2013-02-27 09:39:00,28.4,20.2,29.95,NNE,25,10.0,13.0,71,0.00,,SKC,0.00,VWS V14.01,2013-02-27 15:39:00,
2013-02-27 09:44:00,28.7,20.2,29.95,NNE,16,8.0,13.0,70,0.00,,SKC,0.00,VWS V14.01,2013-02-27 15:44:00,
2013-02-27 09:49:00,28.8,20.3,29.95,NE,38,6.0,13.0,70,0.00,,SKC,0.00,VWS V14.01,2013-02-27 15:49:00,
2013-02-27 09:54:00,29.0,20.8,29.95,North,3,5.0,12.0,71,0.00,,SKC,0.00,VWS V14.01,2013-02-27 15:54:00,
2013-02-27 09:59:00,29.1,20.5,29.95,NNE,20,9.0,14.0,70,0.00,,SKC,0.00,VWS V14.01,2013-02-27 15:59:00,
2013-02-27 10:04:00,29.4,20.5,29.95,NNE,32,6.0,14.0,69,0.00,,SKC,0.00,VWS V14.01,2013-02-27 16:04:00,
2013-02-27 10:09:00,29.5,20.9,29.95,NNE,14,6.0,14.0,70,0.00,,SKC,0.00,VWS V14.01,2013-02-27 16:09:00,
2013-02-27 10:14:00,30.0,21.1,29.94,North,0,11.0,12.0,69,0.00,,SKC,0.00,VWS V14.01,2013-02-27 16:14:00,
2013-02-27 10:19:00,30.3,21.7,29.94,North,1,9.0,13.0,70,0.00,,SKC,0.00,VWS V14.01,2013-02-27 16:19:00,
2013-02-27 10:24:00,30.7,21.8,29.94,NNE,21,6.0,12.0,69,0.00,,SKC,0.00,VWS V14.01,2013-02-27 16:24:00,
2013-02-27 10:29:00,31.2,22.2,29.94,NNE,18,5.0,13.0,69,0.00,,SKC,0.00,VWS V14.01,2013-02-27 16:29:00,
2013-02-27 10:34:00,31.5,22.2,29.94,North,0,10.0,11.0,68,0.00,,SKC,0.00,VWS V14.01,2013-02-27 16:34:00,
2013-02-27 10:39:00,31.8,22.1,29.94,North,1,7.0,14.0,67,0.00,,SKC,0.00,VWS V14.01,2013-02-27 16:39:00,
2013-02-27 10:44:00,32.1,22.0,29.93,North,4,6.0,12.0,66,0.00,,SKC,0.00,VWS V14.01,2013-02-27 16:44:00,
2013-02-27 10:49:00,32.2,22.1,29.93,NNE,13,5.0,12.0,66,0.00,,SKC,0.00,VWS V14.01,2013-02-27 16:49:00,
2013-02-27 10:54:00,32.4,22.3,29.93,NNE,30,9.0,14.0,66,0.00,,SKC,0.00,VWS V14.01,2013-02-27 16:54:00,
2013-02-27 10:59:00,32.5,22.4,29.93,North,0,8.0,14.0,66,0.00,,SKC,0.00,VWS V14.01,2013-02-27 16:59:00,
2013-02-27 11:04:00,32.7,22.2,29.93,North,6,11.0,15.0,65,0.00,,SKC,0.00,VWS V14.01,2013-02-27 17:04:00,
2013-02-27 11:09:00,32.8,22.3,29.93,NNE,23,7.0,15.0,65,0.00,,SKC,0.00,VWS V14.01,2013-02-27 17:09:00,
2013-02-27 11:14:00,32.9,22.1,29.93,NE,56,7.0,18.0,64,0.00,,SKC,0.00,VWS V14.01,2013-02-27 17:14:00,
2013-02-27 11:19:00,33.4,22.9,29.93,NNE,27,10.0,18.0,65,0.00,,SKC,0.00,VWS V14.01,2013-02-27 17:19:00,
2013-02-27 11:23:00,33.4,22.9,29.93,NE,37,6.0,16.0,65,0.00,,SKC,0.00,VWS V14.01,2013-02-27 17:23:00,
2013-02-27 11:28:00,33.4,22.2,29.93,North,3,12.0,17.0,63,0.00,,SKC,0.00,VWS V14.01,2013-02-27 17:28:00,
2013-02-27 11:33:00,33.4,22.9,29.92,North,4,10.0,16.0,65,0.00,,SKC,0.00,VWS V14.01,2013-02-27 17:33:00,
2013-02-27 11:38:00,33.5,23.0,29.92,North,350,10.0,17.0,65,0.00,,SKC,0.00,VWS V14.01,2013-02-27 17:38:00,
2013-02-27 11:43:00,33.8,22.9,29.92,NE,37,13.0,16.0,64,0.00,,SKC,0.00,VWS V14.01,2013-02-27 17:43:00,
2013-02-27 11:48:00,34.3,23.0,29.92,North,357,8.0,16.0,63,0.00,,SKC,0.00,VWS V14.01,2013-02-27 17:48:00,
2013-02-27 11:53:00,34.7,23.8,29.92,North,10,13.0,14.0,64,0.00,,SKC,0.00,VWS V14.01,2013-02-27 17:53:00,
2013-02-27 11:58:00,35.2,24.3,29.92,NNE,17,8.0,14.0,64,0.00,,SKC,0.00,VWS V14.01,2013-02-27 17:58:00,
2013-02-27 12:03:00,35.2,22.3,29.91,NE,48,5.0,18.0,59,0.00,,SKC,0.00,VWS V14.01,2013-02-27 18:03:00,
2013-02-27 12:08:00,35.3,23.2,29.91,North,8,7.0,19.0,61,0.00,,SKC,0.00,VWS V14.01,2013-02-27 18:08:00,
2013-02-27 12:13:00,35.9,23.4,29.91,North,0,12.0,12.0,60,0.00,,SKC,0.00,VWS V14.01,2013-02-27 18:13:00,
2013-02-27 12:18:00,36.0,23.1,29.91,NNE,27,6.0,15.0,59,0.00,,SKC,0.00,VWS V14.01,2013-02-27 18:18:00,
2013-02-27 12:23:00,36.0,23.1,29.91,NNE,16,8.0,17.0,59,0.00,,SKC,0.00,VWS V14.01,2013-02-27 18:23:00,
2013-02-27 12:28:00,36.0,23.1,29.91,NNE,16,6.0,17.0,59,0.00,,SKC,0.00,VWS V14.01,2013-02-27 18:28:00,
2013-02-27 12:33:00,36.2,23.7,29.90,NNE,13,8.0,16.0,60,0.00,,SKC,0.00,VWS V14.01,2013-02-27 18:33:00,
2013-02-27 12:38:00,36.5,23.5,29.90,North,0,14.0,16.0,59,0.00,,SKC,0.00,VWS V14.01,2013-02-27 18:38:00,
2013-02-27 12:43:00,36.5,24.7,29.90,NNE,25,11.0,16.0,62,0.00,,SKC,0.00,VWS V14.01,2013-02-27 18:43:00,
2013-02-27 12:48:00,36.2,23.3,29.90,North,7,7.0,19.0,59,0.00,,SKC,0.00,VWS V14.01,2013-02-27 18:48:00,
2013-02-27 12:53:00,36.3,23.8,29.90,NNE,23,10.0,19.0,60,0.00,,SKC,0.00,VWS V14.01,2013-02-27 18:53:00,
2013-02-27 12:58:00,36.5,23.5,29.90,North,4,16.0,19.0,59,0.00,,SKC,0.00,VWS V14.01,2013-02-27 18:58:00,
2013-02-27 13:03:00,36.3,24.5,29.90,North,0,9.0,17.0,62,0.00,,SKC,0.00,VWS V14.01,2013-02-27 19:03:00,
2013-02-27 13:08:00,36.5,24.0,29.90,North,359,12.0,17.0,60,0.00,,SKC,0.00,VWS V14.01,2013-02-27 19:08:00,
2013-02-27 13:13:00,36.8,24.2,29.90,NNE,31,3.0,16.0,60,0.00,,SKC,0.00,VWS V14.01,2013-02-27 19:13:00,
2013-02-27 13:18:00,36.9,23.5,29.90,North,350,11.0,19.0,58,0.00,,SKC,0.00,VWS V14.01,2013-02-27 19:18:00,
2013-02-27 13:23:00,37.0,24.4,29.90,North,1,13.0,13.0,60,0.00,,SKC,0.00,VWS V14.01,2013-02-27 19:23:00,
2013-02-27 13:28:00,37.0,24.0,29.90,North,4,10.0,18.0,59,0.00,,SKC,0.00,VWS V14.01,2013-02-27 19:28:00,
2013-02-27 13:33:00,37.0,23.6,29.89,North,8,12.0,13.0,58,0.00,,SKC,0.00,VWS V14.01,2013-02-27 19:33:00,
2013-02-27 13:38:00,37.5,24.9,29.89,North,7,6.0,14.0,60,0.00,,SKC,0.00,VWS V14.01,2013-02-27 19:38:00,
2013-02-27 13:43:00,37.6,24.2,29.89,North,11,4.0,15.0,58,0.00,,SKC,0.00,VWS V14.01,2013-02-27 19:43:00,
2013-02-27 13:48:00,37.8,24.0,29.89,North,0,13.0,16.0,57,0.00,,SKC,0.00,VWS V14.01,2013-02-27 19:48:00,
2013-02-27 13:53:00,37.8,22.2,29.89,NNE,13,11.0,18.0,53,0.00,,SKC,0.00,VWS V14.01,2013-02-27 19:53:00,
2013-02-27 13:58:00,37.8,22.7,29.89,North,4,6.0,21.0,54,0.00,,SKC,0.00,VWS V14.01,2013-02-27 19:58:00,
2013-02-27 14:03:00,37.8,23.5,29.89,NNE,20,7.0,10.0,56,0.00,,SKC,0.00,VWS V14.01,2013-02-27 20:03:00,
2013-02-27 14:08:00,37.9,22.8,29.89,North,356,8.0,16.0,54,0.00,,SKC,0.00,VWS V14.01,2013-02-27 20:08:00,
2013-02-27 14:13:00,37.8,22.7,29.89,North,4,8.0,17.0,54,0.00,,SKC,0.00,VWS V14.01,2013-02-27 20:13:00,
2013-02-27 14:18:00,37.8,22.7,29.90,North,6,16.0,17.0,54,0.00,,SKC,0.00,VWS V14.01,2013-02-27 20:18:00,
2013-02-27 14:23:00,37.8,23.5,29.90,North,356,3.0,8.0,56,0.00,,SKC,0.00,VWS V14.01,2013-02-27 20:23:00,
2013-02-27 14:28:00,37.9,22.3,29.90,North,8,6.0,12.0,53,0.00,,SKC,0.00,VWS V14.01,2013-02-27 20:28:00,
2013-02-27 14:33:00,37.9,23.2,29.90,NNE,18,3.0,14.0,55,0.00,,SKC,0.00,VWS V14.01,2013-02-27 20:33:00,
2013-02-27 14:38:00,38.0,22.9,29.90,NNE,20,8.0,14.0,54,0.00,,SKC,0.00,VWS V14.01,2013-02-27 20:38:00,
2013-02-27 14:43:00,38.2,22.1,29.90,North,10,12.0,16.0,52,0.00,,SKC,0.00,VWS V14.01,2013-02-27 20:43:00,
2013-02-27 14:48:00,38.0,22.0,29.90,North,10,6.0,17.0,52,0.00,,SKC,0.00,VWS V14.01,2013-02-27 20:48:00,
2013-02-27 14:53:00,38.0,22.0,29.90,NNE,17,10.0,16.0,52,0.00,,SKC,0.00,VWS V14.01,2013-02-27 20:53:00,
2013-02-27 14:58:00,37.9,20.9,29.90,NNE,18,8.0,18.0,50,0.00,,SKC,0.00,VWS V14.01,2013-02-27 20:58:00,
2013-02-27 15:03:00,38.0,23.3,29.90,NE,44,6.0,11.0,55,0.00,,SKC,0.00,VWS V14.01,2013-02-27 21:03:00,
2013-02-27 15:08:00,38.0,22.4,29.90,North,6,9.0,17.0,53,0.00,,SKC,0.00,VWS V14.01,2013-02-27 21:08:00,
2013-02-27 15:13:00,38.5,21.5,29.90,NNE,17,8.0,17.0,50,0.00,,SKC,0.00,VWS V14.01,2013-02-27 21:13:00,
2013-02-27 15:18:00,38.3,23.1,29.90,NNE,24,7.0,17.0,54,0.00,,SKC,0.00,VWS V14.01,2013-02-27 21:18:00,
2013-02-27 15:23:00,38.6,21.1,29.90,NNE,28,13.0,17.0,49,0.00,,SKC,0.00,VWS V14.01,2013-02-27 21:23:00,
2013-02-27 15:28:00,38.6,22.5,29.90,NNE,18,7.0,17.0,52,0.00,,SKC,0.00,VWS V14.01,2013-02-27 21:28:00,
2013-02-27 15:33:00,38.6,22.5,29.90,NNE,31,10.0,12.0,52,0.00,,SKC,0.00,VWS V14.01,2013-02-27 21:33:00,
2013-02-27 15:38:00,38.3,23.6,29.90,NE,40,10.0,13.0,55,0.00,,SKC,0.00,VWS V14.01,2013-02-27 21:38:00,
2013-02-27 15:43:00,38.6,22.0,29.90,NNE,32,7.0,16.0,51,0.00,,SKC,0.00,VWS V14.01,2013-02-27 21:43:00,
2013-02-27 15:48:00,38.5,22.4,29.90,NNE,23,12.0,17.0,52,0.00,,SKC,0.00,VWS V14.01,2013-02-27 21:48:00,
2013-02-27 15:53:00,38.6,22.5,29.90,North,4,7.0,13.0,52,0.00,,SKC,0.00,VWS V14.01,2013-02-27 21:53:00,
2013-02-27 15:58:00,38.6,22.0,29.90,North,10,10.0,14.0,51,0.00,,SKC,0.00,VWS V14.01,2013-02-27 21:58:00,
2013-02-27 16:03:00,38.6,23.4,29.91,NNE,13,10.0,12.0,54,0.00,,SKC,0.00,VWS V14.01,2013-02-27 22:03:00,
2013-02-27 16:08:00,38.6,22.0,29.91,North,3,6.0,12.0,51,0.00,,SKC,0.00,VWS V14.01,2013-02-27 22:08:00,
2013-02-27 16:13:00,37.9,24.0,29.91,NNW,339,6.0,12.0,57,0.00,,SKC,0.00,VWS V14.01,2013-02-27 22:13:00,
2013-02-27 16:18:00,35.5,24.2,29.91,NNW,337,8.0,12.0,63,0.00,,SKC,0.00,VWS V14.01,2013-02-27 22:18:00,
2013-02-27 16:23:00,34.7,23.8,29.91,NNW,343,5.0,11.0,64,0.00,,SKC,0.00,VWS V14.01,2013-02-27 22:23:00,
2013-02-27 16:28:00,34.3,23.4,29.91,NNW,340,7.0,11.0,64,0.00,,SKC,0.00,VWS V14.01,2013-02-27 22:28:00,
2013-02-27 16:33:00,34.1,23.6,29.92,NNW,342,6.0,8.0,65,0.00,,SKC,0.00,VWS V14.01,2013-02-27 22:33:00,
2013-02-27 16:38:00,34.1,23.6,29.92,North,356,2.0,10.0,65,0.00,,SKC,0.00,VWS V14.01,2013-02-27 22:38:00,
2013-02-27 16:43:00,33.8,23.3,29.92,NW,315,6.0,8.0,65,0.00,,SKC,0.00,VWS V14.01,2013-02-27 22:43:00,
2013-02-27 16:48:00,33.5,23.4,29.92,North,0,6.0,9.0,66,0.00,,SKC,0.00,VWS V14.01,2013-02-27 22:48:00,
2013-02-27 16:53:00,33.1,23.4,29.92,North,0,2.0,11.0,67,0.00,,SKC,0.00,VWS V14.01,2013-02-27 22:53:00,
2013-02-27 16:58:00,32.7,23.0,29.92,North,356,6.0,11.0,67,0.00,,SKC,0.00,VWS V14.01,2013-02-27 22:58:00,
2013-02-27 17:03:00,32.2,22.8,29.93,North,359,3.0,12.0,68,0.00,,SKC,0.00,VWS V14.01,2013-02-27 23:03:00,
2013-02-27 17:08:00,31.9,22.9,29.93,NNW,342,7.0,12.0,69,0.00,,SKC,0.00,VWS V14.01,2013-02-27 23:08:00,
2013-02-27 17:13:00,31.5,22.9,29.93,North,352,6.0,13.0,70,0.00,,SKC,0.00,VWS V14.01,2013-02-27 23:13:00,
2013-02-27 17:18:00,31.2,22.9,29.94,NNW,330,8.0,13.0,71,0.00,,SKC,0.00,VWS V14.01,2013-02-27 23:18:00,
2013-02-27 17:23:00,30.9,23.0,29.94,NW,315,8.0,10.0,72,0.00,,SKC,0.00,VWS V14.01,2013-02-27 23:23:00,
2013-02-27 17:28:00,30.4,22.8,29.94,North,0,8.0,12.0,73,0.00,,SKC,0.00,VWS V14.01,2013-02-27 23:28:00,
2013-02-27 17:33:00,30.1,22.5,29.94,North,350,10.0,13.0,73,0.00,,SKC,0.00,VWS V14.01,2013-02-27 23:33:00,
2013-02-27 17:38:00,29.7,22.4,29.94,North,0,6.0,13.0,74,0.00,,SKC,0.00,VWS V14.01,2013-02-27 23:38:00,
2013-02-27 17:43:00,29.4,22.5,29.94,North,352,6.0,11.0,75,0.00,,SKC,0.00,VWS V14.01,2013-02-27 23:43:00,
2013-02-27 17:48:00,29.1,22.2,29.95,North,3,11.0,14.0,75,0.00,,SKC,0.00,VWS V14.01,2013-02-27 23:48:00,
2013-02-27 17:53:00,28.8,22.2,29.95,NNW,330,6.0,9.0,76,0.00,,SKC,0.00,VWS V14.01,2013-02-27 23:53:00,
2013-02-27 17:58:00,28.8,22.2,29.95,North,359,6.0,13.0,76,0.00,,SKC,0.00,VWS V14.01,2013-02-27 23:58:00,
2013-02-27 18:03:00,28.7,22.1,29.95,NNW,347,9.0,13.0,76,0.00,,SKC,0.00,VWS V14.01,2013-02-28 00:03:00,
2013-02-27 18:08:00,28.4,21.8,29.95,NNW,343,9.0,13.0,76,0.00,,SKC,0.00,VWS V14.01,2013-02-28 00:08:00,
2013-02-27 18:13:00,28.4,21.8,29.95,North,0,6.0,12.0,76,0.00,,SKC,0.00,VWS V14.01,2013-02-28 00:13:00,
2013-02-27 18:18:00,28.2,21.9,29.96,North,359,7.0,12.0,77,0.00,,SKC,0.00,VWS V14.01,2013-02-28 00:18:00,
2013-02-27 18:23:00,28.1,21.8,29.96,North,359,8.0,14.0,77,0.00,,SKC,0.00,VWS V14.01,2013-02-28 00:23:00,
2013-02-27 18:28:00,27.9,21.6,29.96,NNW,346,6.0,14.0,77,0.00,,SKC,0.00,VWS V14.01,2013-02-28 00:28:00,
2013-02-27 18:33:00,27.9,21.6,29.97,NNW,343,7.0,12.0,77,0.00,,SKC,0.00,VWS V14.01,2013-02-28 00:33:00,
2013-02-27 18:38:00,27.8,21.5,29.97,North,0,8.0,12.0,77,0.00,,SKC,0.00,VWS V14.01,2013-02-28 00:38:00,
2013-02-27 18:43:00,27.8,21.5,29.97,North,350,8.0,10.0,77,0.00,,SKC,0.00,VWS V14.01,2013-02-28 00:43:00,
2013-02-27 18:48:00,27.8,21.5,29.98,North,354,8.0,11.0,77,0.00,,SKC,0.00,VWS V14.01,2013-02-28 00:48:00,
2013-02-27 18:53:00,27.9,21.3,29.98,North,0,11.0,11.0,76,0.00,,SKC,0.00,VWS V14.01,2013-02-28 00:53:00,
2013-02-27 18:58:00,28.2,21.6,29.98,North,0,5.0,13.0,76,0.00,,SKC,0.00,VWS V14.01,2013-02-28 00:58:00,
2013-02-27 19:03:00,28.5,21.6,29.98,North,0,7.0,14.0,75,0.00,,SKC,0.00,VWS V14.01,2013-02-28 01:03:00,
2013-02-27 19:08:00,28.5,21.6,29.98,North,0,6.0,14.0,75,0.00,,SKC,0.00,VWS V14.01,2013-02-28 01:08:00,
2013-02-27 19:13:00,28.5,21.6,29.98,North,350,10.0,11.0,75,0.00,,SKC,0.00,VWS V14.01,2013-02-28 01:13:00,
2013-02-27 19:18:00,28.5,21.3,29.98,North,1,7.0,13.0,74,0.00,,SKC,0.00,VWS V14.01,2013-02-28 01:18:00,
2013-02-27 19:23:00,28.5,21.3,29.98,North,0,7.0,14.0,74,0.00,,SKC,0.00,VWS V14.01,2013-02-28 01:23:00,
2013-02-27 19:28:00,28.5,21.3,29.98,SSW,213,7.0,14.0,74,0.00,,SKC,0.00,VWS V14.01,2013-02-28 01:28:00,
2013-02-27 19:33:00,28.5,21.0,29.99,North,0,9.0,12.0,73,0.00,,SKC,0.00,VWS V14.01,2013-02-28 01:33:00,
2013-02-27 19:38:00,28.7,21.1,29.99,NNE,18,3.0,12.0,73,0.00,,SKC,0.00,VWS V14.01,2013-02-28 01:38:00,
2013-02-27 19:43:00,28.2,21.0,29.99,East,96,4.0,6.0,74,0.00,,SKC,0.00,VWS V14.01,2013-02-28 01:43:00,
2013-02-27 19:48:00,28.1,20.9,30.00,ENE,61,1.0,6.0,74,0.00,,SKC,0.00,VWS V14.01,2013-02-28 01:48:00,
2013-02-27 19:53:00,27.9,21.0,30.00,East,99,3.0,5.0,75,0.00,,SKC,0.00,VWS V14.01,2013-02-28 01:53:00,
2013-02-27 19:58:00,27.9,21.0,30.00,ENE,75,1.0,5.0,75,0.00,,SKC,0.00,VWS V14.01,2013-02-28 01:58:00,
2013-02-27 20:03:00,27.6,20.7,30.01,NE,55,1.0,3.0,75,0.00,,SKC,0.00,VWS V14.01,2013-02-28 02:03:00,
2013-02-27 20:08:00,27.3,20.4,30.01,ENE,59,0.0,3.0,75,0.00,,SKC,0.00,VWS V14.01,2013-02-28 02:08:00,
2013-02-27 20:13:00,27.0,20.1,30.01,NE,35,2.0,6.0,75,0.00,,SKC,0.00,VWS V14.01,2013-02-28 02:13:00,
2013-02-27 20:18:00,26.7,20.2,30.00,NNE,20,2.0,6.0,76,0.00,,SKC,0.00,VWS V14.01,2013-02-28 02:18:00,
2013-02-27 20:23:00,26.4,20.2,30.00,NNE,13,3.0,6.0,77,0.00,,SKC,0.00,VWS V14.01,2013-02-28 02:23:00,
2013-02-27 20:27:00,26.9,20.4,30.00,NNE,17,5.0,6.0,76,0.00,,SKC,0.00,VWS V14.01,2013-02-28 02:27:00,
2013-02-27 20:32:00,26.7,20.2,30.01,NNE,16,3.0,6.0,76,0.00,,SKC,0.00,VWS V14.01,2013-02-28 02:32:00,
2013-02-27 20:37:00,26.6,19.8,30.01,NNE,18,3.0,6.0,75,0.00,,SKC,0.00,VWS V14.01,2013-02-28 02:37:00,
2013-02-27 20:42:00,26.4,19.6,30.01,NNE,30,3.0,4.0,75,0.00,,SKC,0.00,VWS V14.01,2013-02-28 02:42:00,
2013-02-27 20:47:00,26.3,19.5,30.01,NNE,25,2.0,6.0,75,0.00,,SKC,0.00,VWS V14.01,2013-02-28 02:47:00,
2013-02-27 20:52:00,25.8,19.3,30.01,NNE,20,3.0,5.0,76,0.00,,SKC,0.00,VWS V14.01,2013-02-28 02:52:00,
2013-02-27 20:57:00,25.7,19.2,30.01,NNE,31,3.0,6.0,76,0.00,,SKC,0.00,VWS V14.01,2013-02-28 02:57:00,
2013-02-27 21:02:00,25.7,19.2,30.02,NE,45,0.0,7.0,76,0.00,,SKC,0.00,VWS V14.01,2013-02-28 03:02:00,
2013-02-27 21:07:00,25.7,19.2,30.02,NNE,31,4.0,7.0,76,0.00,,SKC,0.00,VWS V14.01,2013-02-28 03:07:00,
2013-02-27 21:12:00,25.6,19.1,30.02,NE,49,0.0,6.0,76,0.00,,SKC,0.00,VWS V14.01,2013-02-28 03:12:00,
2013-02-27 21:17:00,25.3,18.8,30.02,NE,47,0.0,6.0,76,0.00,,SKC,0.00,VWS V14.01,2013-02-28 03:17:00,
2013-02-27 21:22:00,24.5,18.0,30.02,NE,40,1.0,2.0,76,0.00,,SKC,0.00,VWS V14.01,2013-02-28 03:22:00,
2013-02-27 21:27:00,23.9,17.8,30.02,NE,34,3.0,5.0,77,0.00,,SKC,0.00,VWS V14.01,2013-02-28 03:27:00,
2013-02-27 21:32:00,23.8,18.0,30.03,NE,41,0.0,3.0,78,0.00,,SKC,0.00,VWS V14.01,2013-02-28 03:32:00,
2013-02-27 21:37:00,23.6,17.8,30.03,NE,42,2.0,3.0,78,0.00,,SKC,0.00,VWS V14.01,2013-02-28 03:37:00,
2013-02-27 21:42:00,23.5,18.0,30.03,NE,37,1.0,3.0,79,0.00,,SKC,0.00,VWS V14.01,2013-02-28 03:42:00,
2013-02-27 21:47:00,23.3,17.5,30.04,NE,40,0.0,3.0,78,0.00,,SKC,0.00,VWS V14.01,2013-02-28 03:47:00,
2013-02-27 21:52:00,23.0,17.2,30.04,NE,47,0.0,0.0,78,0.00,,SKC,0.00,VWS V14.01,2013-02-28 03:52:00,
2013-02-27 21:57:00,22.9,17.4,30.04,NE,45,0.0,1.0,79,0.00,,SKC,0.00,VWS V14.01,2013-02-28 03:57:00,
2013-02-27 22:02:00,23.3,18.1,30.04,NNE,25,2.0,3.0,80,0.00,,SKC,0.00,VWS V14.01,2013-02-28 04:02:00,
2013-02-27 22:07:00,24.1,18.5,30.04,NNE,17,3.0,5.0,79,0.00,,SKC,0.00,VWS V14.01,2013-02-28 04:07:00,
2013-02-27 22:12:00,24.7,18.8,30.04,NE,35,3.0,6.0,78,0.00,,SKC,0.00,VWS V14.01,2013-02-28 04:12:00,
2013-02-27 22:17:00,23.8,17.0,30.04,NE,45,0.0,6.0,75,0.00,,SKC,0.00,VWS V14.01,2013-02-28 04:17:00,
2013-02-27 22:22:00,22.9,16.5,30.04,NE,48,0.0,0.0,76,0.00,,SKC,0.00,VWS V14.01,2013-02-28 04:22:00,
2013-02-27 22:27:00,22.2,16.7,30.04,NE,48,0.0,0.0,79,0.00,,SKC,0.00,VWS V14.01,2013-02-28 04:27:00,
2013-02-27 22:32:00,21.9,17.0,30.05,NE,48,0.0,0.0,81,0.00,,SKC,0.00,VWS V14.01,2013-02-28 04:32:00,
2013-02-27 22:37:00,21.9,17.3,30.05,ENE,62,0.0,0.0,82,0.00,,SKC,0.00,VWS V14.01,2013-02-28 04:37:00,
2013-02-27 22:42:00,22.1,17.5,30.05,NNE,27,1.0,3.0,82,0.00,,SKC,0.00,VWS V14.01,2013-02-28 04:42:00,
2013-02-27 22:47:00,22.2,17.5,30.05,ENE,65,2.0,3.0,82,0.00,,SKC,0.00,VWS V14.01,2013-02-28 04:47:00,
2013-02-27 22:52:00,22.2,17.3,30.05,ENE,76,0.0,0.0,81,0.00,,SKC,0.00,VWS V14.01,2013-02-28 04:52:00,
2013-02-27 22:57:00,22.1,17.5,30.05,ENE,76,0.0,0.0,82,0.00,,SKC,0.00,VWS V14.01,2013-02-28 04:57:00,
2013-02-27 23:00:00,22.2,17.5,30.05,ENE,75,0.0,0.0,82,0.00,,SKC,0.00,VWS V14.01,2013-02-28 05:00:00,
2013-02-27 23:05:00,22.2,17.5,30.05,NE,51,1.0,2.0,82,0.00,,SKC,0.00,VWS V14.01,2013-02-28 05:05:00,
2013-02-27 23:10:00,22.5,17.6,30.05,NNE,32,2.0,3.0,81,0.00,,SKC,0.00,VWS V14.01,2013-02-28 05:10:00,
2013-02-27 23:15:00,22.7,17.8,30.05,NNE,30,1.0,5.0,81,0.00,,SKC,0.00,VWS V14.01,2013-02-28 05:15:00,
2013-02-27 23:20:00,22.4,17.2,30.05,NE,35,2.0,3.0,80,0.00,,SKC,0.00,VWS V14.01,2013-02-28 05:20:00,
2013-02-27 23:25:00,21.9,16.7,30.05,NE,34,1.0,3.0,80,0.00,,SKC,0.00,VWS V14.01,2013-02-28 05:25:00,
2013-02-27 23:30:00,21.6,16.7,30.05,NE,34,3.0,3.0,81,0.00,,SKC,0.00,VWS V14.01,2013-02-28 05:30:00,
2013-02-27 23:35:00,22.5,18.4,30.05,NNE,20,3.0,5.0,84,0.00,,SKC,0.00,VWS V14.01,2013-02-28 05:35:00,
2013-02-27 23:40:00,23.8,19.1,30.05,NNE,28,3.0,3.0,82,0.00,,SKC,0.00,VWS V14.01,2013-02-28 05:40:00,
2013-02-27 23:45:00,23.6,18.6,30.05,NE,37,1.0,5.0,81,0.00,,SKC,0.00,VWS V14.01,2013-02-28 05:45:00,
2013-02-27 23:50:00,23.5,18.8,30.05,NNE,32,2.0,2.0,82,0.00,,SKC,0.00,VWS V14.01,2013-02-28 05:50:00,
2013-02-27 23:55:00,23.8,19.1,30.05,NNE,27,3.0,6.0,82,0.00,,SKC,0.00,VWS V14.01,2013-02-28 05:55:00,